Weather reports worldwide

Advertisment
Deauville, France (7031): temperature & dewpoint: 20.09.2018 17:00:00 - 26.09.2018 17:00:00 (CEST)Deauville, France (7031): temperature 5cm: 20.09.2018 17:00:00 - 26.09.2018 17:00:00 (CEST)Deauville, France (7031): wind speed & gusts: 20.09.2018 17:00:00 - 26.09.2018 17:00:00 (CEST)Deauville, France (7031): wind direction: 20.09.2018 17:00:00 - 26.09.2018 17:00:00 (CEST)Deauville, France (7031): reduced air pressure: 20.09.2018 17:00:00 - 26.09.2018 17:00:00 (CEST)Deauville, France (7031): visibility: 20.09.2018 17:00:00 - 26.09.2018 17:00:00 (CEST)Deauville, France (7031): precipitation: 20.09.2018 17:00:00 - 26.09.2018 17:00:00 (CEST)
Date & Time tt [°C] td [°C] tt 5cm [°C] ff [km/h] ff [kn] fx [km/h] fx [kn] dd ppp [hPa] vv [km] rr [mm]
26.09.2018 17:00:00 19,6 6,0 27,2 7 4 19 10 E 1031,9 54 0,0
26.09.2018 16:00:00 19,6 7,0 28,5 7 4 16 9 E 1032,4 46 0,0
26.09.2018 15:00:00 19,4 5,8 28,2 8 4 24 13 SE 1032,8 52 0,0
26.09.2018 14:00:00 17,8 6,3 28,6 8 5 20 11 ENE 1033,5 57 0,0
26.09.2018 13:00:00 16,8 5,7 24,0 9 5 22 12 E 1034,0 19 0,0
26.09.2018 12:00:00 15,7 5,6 18,8 9 5 18 10 E 1034,3 59 0,0
26.09.2018 11:00:00 14,3 6,1 13,5 7 4 15 8 E 1034,3 46 0,0
26.09.2018 10:00:00 12,2 6,0 3,6 5 3 15 8 ESE 1034,4 44 0,0
26.09.2018 09:00:00 7,2 6,8 -1,4 6 3 11 6 ESE 1034,4 57 0,0
26.09.2018 08:00:00 4,7 4,4 -1,9 2 1 8 4 ESE 1034,4 56 0,0
26.09.2018 07:00:00 4,6 4,3 -1,8 0 0 5 3 N 1034,1 9 0,0
26.09.2018 06:00:00 4,5 3,9 -1,5 0 0 3 2 N 1034,1 18 0,0
26.09.2018 05:00:00 4,9 4,3 -0,9 2 1 8 4 E 1034,3 50 0,0
26.09.2018 04:00:00 5,3 4,3 -0,3 4 2 8 4 E 1034,4 58 0,0
26.09.2018 03:00:00 5,8 4,6 -0,3 2 1 9 5 ESE 1035,2 58 0,0
26.09.2018 02:00:00 6,6 4,8 0,1 5 3 11 6 NNE 1035,4 60 0,0
26.09.2018 01:00:00 8,6 4,6 2,1 9 5 18 10 E 1035,4 60 0,0
26.09.2018 00:00:00 8,8 4,8 0,6 9 5 16 9 E 1035,4 60 0,0
25.09.2018 23:00:00 8,7 4,7 0,3 8 4 13 7 E 1035,7 60 0,0
25.09.2018 22:00:00 8,7 4,9 0,6 7 4 13 7 E 1035,7 60 0,0
25.09.2018 21:00:00 7,7 5,8 1,6 5 3 9 5 NE 1036,4 60 0,0
25.09.2018 20:00:00 10,9 6,2 6,1 4 2 19 10 NE 1035,5 53 0,0
25.09.2018 19:00:00 14,7 4,4 16,6 10 5 24 13 E 1035,0 53 0,0
25.09.2018 18:00:00 15,9 3,7 21,3 11 6 29 15 E 1035,3 53 0,0
25.09.2018 17:00:00 16,1 3,8 24,3 13 7 29 16 ENE 1036,1 38 0,0
25.09.2018 16:00:00 15,9 3,3 24,8 12 7 30 16 E 1036,6 45 0,0
25.09.2018 15:00:00 15,7 4,7 24,3 13 7 30 16 ENE 1037,2 60 0,0
25.09.2018 14:00:00 15,1 3,9 26,0 16 8 31 17 E 1037,7 59 0,0
25.09.2018 13:00:00 14,4 5,7 21,3 14 7 29 16 E 1038,2 54 0,0
25.09.2018 12:00:00 13,3 5,7 16,5 16 9 29 16 E 1038,8 20 0,0
25.09.2018 11:00:00 12,0 6,1 12,4 14 8 23 12 E 1038,8 30 0,0
25.09.2018 10:00:00 10,0 5,8 5,3 9 5 20 11 E 1038,8 50 0,0
25.09.2018 09:00:00 7,6 5,1 -0,9 6 4 14 8 E 1038,7 35 0,0
25.09.2018 08:00:00 4,9 3,9 -1,5 7 4 11 6 E 1038,6 18 0,0
25.09.2018 07:00:00 5,6 4,2 -0,9 8 4 14 7 E 1038,3 33 0,0
25.09.2018 06:00:00 6,2 4,4 -1,4 8 4 16 9 E 1038,3 41 0,0
25.09.2018 05:00:00 5,4 4,5 -1,2 5 3 12 6 E 1038,6 60 0,0
25.09.2018 04:00:00 6,1 3,9 -0,9 6 3 18 10 NE 1038,7 60 0,0
25.09.2018 03:00:00 6,4 5,0 -1,6 10 5 16 8 E 1038,4 60 0,0
25.09.2018 02:00:00 5,9 5,5 -1,8 6 3 12 6 ENE 1038,8 60 0,0
25.09.2018 01:00:00 5,6 5,3 -1,6 0 0 4 2 N 1038,9 60 0,0
25.09.2018 00:00:00 5,8 5,2 -1,3 2 1 9 5 NE 1039,1 13 0,0
24.09.2018 23:00:00 6,5 5,8 -0,6 5 3 12 7 NNE 1039,1 60 0,0
24.09.2018 22:00:00 7,0 6,1 0,0 5 3 11 6 NNE 1038,8 60 0,0
24.09.2018 21:00:00 7,4 5,7 1,1 6 4 10 5 N 1038,5 60 0,0
24.09.2018 20:00:00 10,0 5,8 5,7 5 3 18 10 N 1037,8 60 0,0
24.09.2018 19:00:00 12,9 5,6 14,7 10 6 21 11 N 1037,4 60 0,0
24.09.2018 18:00:00 13,7 5,3 14,9 13 7 31 17 N 1037,3 57 0,0
24.09.2018 17:00:00 15,1 6,9 16,3 13 7 29 16 N 1037,3 56 0,0
24.09.2018 16:00:00 15,4 3,8 16,9 15 8 26 14 N 1037,6 60 0,0
24.09.2018 15:00:00 15,5 4,5 18,8 11 6 23 13 NNE 1037,7 55 0,0
24.09.2018 14:00:00 15,1 6,9 15,2 6 3 23 13 ENE 1037,8 46 0,0
24.09.2018 13:00:00 14,8 6,4 19,3 11 6 25 13 ENE 1038,2 60 0,0
24.09.2018 12:00:00 13,7 5,6 16,0 13 7 29 16 NE 1038,1 52 0,0
24.09.2018 11:00:00 13,3 5,7 12,7 10 5 - - NE 1038,0 49 -
24.09.2018 10:00:00 - - - - - - - - - - -
24.09.2018 09:00:00 - - - - - - - - - - -
24.09.2018 08:00:00 - - - - - - - - - - -
24.09.2018 07:00:00 - - - - - - - - - - -
24.09.2018 06:00:00 - - - - - - - - - - -
24.09.2018 05:00:00 - - - - - - - - - - -
24.09.2018 04:00:00 - - - - - - - - - - -
24.09.2018 03:00:00 - - - - - - - - - - -
24.09.2018 02:00:00 - - - - - - - - - - -
24.09.2018 01:00:00 - - - - - - - - - - -
24.09.2018 00:00:00 - - - - - - - - - - -
23.09.2018 23:00:00 - - - - - - - - - - -
23.09.2018 22:00:00 - - - - - - - - - - -
23.09.2018 21:00:00 - - - - - - - - - - -
23.09.2018 20:00:00 - - - - - - - - - - -
23.09.2018 19:00:00 - - - - - - - - - - -
23.09.2018 18:00:00 - - - - - - - - - - -
23.09.2018 17:00:00 - - - - - - - - - - -
23.09.2018 16:00:00 - - - - - - - - - - -
23.09.2018 15:00:00 - - - - - - - - - - -
23.09.2018 14:00:00 - - - - - - - - - - -
23.09.2018 13:00:00 - - - - - - - - - - -
23.09.2018 12:00:00 - - - - - - - - - - -
23.09.2018 11:00:00 - - - - - - - - - - -
23.09.2018 10:00:00 - - - - - - - - - - -
23.09.2018 09:00:00 - - - - - - - - - - -
23.09.2018 08:00:00 - - - - - - - - - - -
23.09.2018 07:00:00 - - - - - - - - - - -
23.09.2018 06:00:00 - - - - - - - - - - -
23.09.2018 05:00:00 - - - - - - - - - - -
23.09.2018 04:00:00 - - - - - - - - - - -
23.09.2018 03:00:00 - - - - - - - - - - -
23.09.2018 02:00:00 - - - - - - - - - - -
23.09.2018 01:00:00 - - - - - - - - - - -
23.09.2018 00:00:00 - - - - - - - - - - -
22.09.2018 23:00:00 17,7 17,5 16,1 22 12 40 22 SW 1013,3 4,4 0,2
22.09.2018 22:00:00 16,3 16,1 14,9 22 12 47 25 SW 1013,3 3,7 0,0
22.09.2018 21:00:00 15,2 15,0 12,5 22 12 41 22 SSW 1013,3 10 0,2
22.09.2018 20:00:00 12,6 12,3 11,5 21 11 44 24 S 1013,5 4,9 0,2
22.09.2018 19:00:00 11,9 11,0 11,6 22 12 47 26 S 1014,3 6 0,2
22.09.2018 18:00:00 12,3 10,7 12,0 21 11 45 24 SSE 1015,6 20 0,4
22.09.2018 17:00:00 12,2 10,8 12,4 11 6 31 17 SE 1017,7 3,3 1,0
22.09.2018 16:00:00 13,1 10,1 13,7 11 6 26 14 ESE 1018,8 51 0,0
22.09.2018 15:00:00 13,6 10,2 14,6 8 4 21 11 SSE 1020,4 57 0,2
22.09.2018 14:00:00 12,8 10,7 12,6 7 4 26 14 S 1021,7 13 0,8
22.09.2018 13:00:00 14,1 9,7 14,8 16 9 31 17 SSW 1022,1 29 0,0
22.09.2018 12:00:00 13,6 9,8 13,8 15 8 25 13 S 1022,0 49 0,2
22.09.2018 11:00:00 12,9 9,9 12,6 13 7 23 13 S 1022,5 34 0,0
22.09.2018 10:00:00 11,9 9,1 10,8 11 6 20 11 S 1022,7 35 0,0
22.09.2018 09:00:00 11,2 8,4 9,4 12 6 18 10 S 1022,8 49 0,0
22.09.2018 08:00:00 10,8 8,2 9,2 11 6 20 11 S 1022,8 58 0,0
22.09.2018 07:00:00 10,5 8,4 8,9 10 6 16 9 SSW 1022,7 56 0,0
22.09.2018 06:00:00 10,7 8,5 9,2 12 6 18 10 SSW 1022,7 55 0,0
22.09.2018 05:00:00 10,4 8,8 8,8 11 6 17 9 SSW 1023,1 55 0,0
22.09.2018 04:00:00 11,2 8,4 8,8 9 5 18 10 SSW 1023,1 57 0,0
22.09.2018 03:00:00 10,9 7,9 7,3 12 6 21 11 SW 1022,9 55 0,0
22.09.2018 02:00:00 9,7 7,1 7,4 11 6 19 11 SSW 1023,1 52 0,0
22.09.2018 01:00:00 9,7 6,8 7,6 11 6 19 10 SSW 1023,2 52 0,0
22.09.2018 00:00:00 10,5 7,0 8,6 13 7 21 12 S 1022,8 52 0,0
21.09.2018 23:00:00 12,0 7,1 10,0 16 8 37 20 SW 1022,3 53 0,0
21.09.2018 22:00:00 13,1 7,5 11,4 22 12 49 26 WSW 1021,8 51 0,0
21.09.2018 21:00:00 13,7 7,0 11,9 29 16 50 27 W 1021,0 53 0,0
21.09.2018 20:00:00 13,9 6,0 12,3 24 13 48 26 W 1020,2 55 0,0
21.09.2018 19:00:00 14,8 5,6 14,4 30 16 57 31 W 1019,4 35 0,0
21.09.2018 18:00:00 15,1 6,9 15,1 28 15 52 28 W 1018,8 20 0,0
21.09.2018 17:00:00 15,8 6,5 15,5 33 18 55 30 W 1018,3 24 0,0
21.09.2018 16:00:00 16,2 5,8 18,6 36 19 57 31 W 1017,7 13 0,0
21.09.2018 15:00:00 15,3 9,0 13,6 26 14 52 28 W 1017,4 25 0,0
21.09.2018 14:00:00 15,9 7,1 16,1 34 18 57 31 W 1016,4 29 0,0
21.09.2018 13:00:00 13,9 8,5 11,8 25 14 53 29 W 1015,8 45 0,0
21.09.2018 12:00:00 14,0 6,6 14,5 34 18 55 30 W 1015,1 26 0,0
21.09.2018 11:00:00 14,0 7,5 14,0 31 17 58 31 W 1014,2 31 0,0
21.09.2018 10:00:00 13,8 7,6 12,7 29 16 58 31 W 1012,7 28 0,0
21.09.2018 09:00:00 13,7 7,7 12,3 31 17 55 30 W 1011,4 36 0,0
21.09.2018 08:00:00 13,8 9,6 11,7 32 17 62 33 W 1010,0 42 0,0
21.09.2018 07:00:00 13,8 11,1 12,2 28 15 55 30 WSW 1008,8 31 0,0
21.09.2018 06:00:00 13,9 13,3 13,3 23 13 59 32 WSW 1007,7 17 3,0
21.09.2018 05:00:00 14,1 12,8 13,7 45 25 74 40 W 1007,0 1,9 4,3
21.09.2018 04:00:00 18,2 14,9 16,0 32 17 58 31 SSW 1005,2 20 0,2
21.09.2018 03:00:00 18,1 14,6 16,6 26 14 55 30 SSW 1006,1 42 0,0
21.09.2018 02:00:00 18,1 14,2 16,7 22 12 48 26 S 1006,8 47 0,0
21.09.2018 01:00:00 17,8 13,9 16,4 19 10 42 23 S 1008,7 50 0,0
21.09.2018 00:00:00 18,0 13,5 16,3 20 11 42 23 S 1009,4 53 0,0
20.09.2018 23:00:00 18,2 13,3 16,8 21 12 45 24 SSW 1010,1 53 0,0
20.09.2018 22:00:00 19,3 13,0 18,0 27 15 48 26 SSW 1010,7 54 0,0
20.09.2018 21:00:00 19,9 13,1 18,5 29 15 46 25 SSW 1010,9 49 0,0
20.09.2018 20:00:00 20,5 13,0 18,9 27 14 44 24 SW 1011,7 54 0,0
20.09.2018 19:00:00 21,9 13,5 20,7 24 13 44 24 SSW 1011,9 53 0,0
20.09.2018 18:00:00 23,6 14,9 23,4 24 13 49 26 SSW 1012,4 57 0,0
20.09.2018 17:00:00 23,9 15,1 24,8 25 14 46 25 SSW 1013,1 37 0,0

tt = temperature
td = dewpoint
tt 5cm = temperature 5cm
ff = wind speed
fx = gusts
dd = wind direction
ppp = reduced air pressure
vv = visibility
rr = precipitation

Next stations